TimeEDT,TemperatureF,Dew PointF,Humidity,Sea Level PressureIn,VisibilityMPH,Wind Direction,Wind SpeedMPH,Gust SpeedMPH,PrecipitationIn,Events,Conditions,WindDirDegrees,DateUTC
12:08 AM,57.2,57.2,100,30.07,7.0,Calm,Calm,-,0.01,,Overcast,0,2013-10-05 04:08:00
12:20 AM,57.2,57.2,100,30.07,2.5,Calm,Calm,-,0.07,Rain,Heavy Rain,0,2013-10-05 04:20:00
12:27 AM,57.2,57.2,100,30.07,3.0,Calm,Calm,-,0.09,Rain,Rain,0,2013-10-05 04:27:00
12:42 AM,57.2,57.2,100,30.07,1.8,Calm,Calm,-,0.20,Rain,Heavy Rain,0,2013-10-05 04:42:00
12:52 AM,57.9,57.0,97,30.06,2.0,NNE,4.6,-,0.26,Rain,Heavy Rain,20,2013-10-05 04:52:00
1:07 AM,57.2,57.2,100,30.07,1.8,Calm,Calm,-,0.09,Rain,Heavy Rain,0,2013-10-05 05:07:00
1:11 AM,57.2,57.2,100,30.07,3.0,North,4.6,-,0.09,Rain,Light Rain,10,2013-10-05 05:11:00
1:19 AM,57.2,57.2,100,30.08,10.0,Calm,Calm,-,0.09,,Overcast,0,2013-10-05 05:19:00
1:33 AM,57.2,57.2,100,30.07,3.0,Calm,Calm,-,0.14,Rain,Light Rain,0,2013-10-05 05:33:00
1:52 AM,59.0,57.0,93,30.07,10.0,Calm,Calm,-,0.14,,Overcast,0,2013-10-05 05:52:00
2:16 AM,57.2,57.2,100,30.06,10.0,Calm,Calm,-,N/A,,Overcast,0,2013-10-05 06:16:00
2:28 AM,57.2,57.2,100,30.08,1.5,West,3.5,-,0.13,Rain,Heavy Rain,260,2013-10-05 06:28:00
2:37 AM,57.2,57.2,100,30.07,0.5,North,4.6,-,0.38,Fog-Rain,Heavy Rain,350,2013-10-05 06:37:00
2:45 AM,57.2,57.2,100,30.07,2.0,NNE,3.5,-,0.41,Rain,Light Rain,20,2013-10-05 06:45:00
2:52 AM,57.9,57.0,97,30.07,8.0,Calm,Calm,-,0.41,Rain,Light Rain,0,2013-10-05 06:52:00
3:52 AM,59.0,57.0,93,30.06,10.0,Calm,Calm,-,0.00,,Overcast,0,2013-10-05 07:52:00
4:52 AM,59.0,57.0,93,30.06,10.0,Calm,Calm,-,N/A,,Overcast,0,2013-10-05 08:52:00
5:52 AM,59.0,57.0,93,30.08,10.0,Calm,Calm,-,0.00,,Overcast,0,2013-10-05 09:52:00
6:52 AM,59.0,57.0,93,30.10,10.0,Calm,Calm,-,N/A,,Overcast,0,2013-10-05 10:52:00
7:52 AM,60.1,57.0,90,30.09,10.0,Calm,Calm,-,N/A,,Overcast,0,2013-10-05 11:52:00
8:52 AM,60.1,57.9,93,30.11,10.0,Calm,Calm,-,N/A,,Overcast,0,2013-10-05 12:52:00
9:52 AM,61.0,59.0,93,30.12,10.0,North,3.5,-,N/A,,Overcast,350,2013-10-05 13:52:00
10:52 AM,63.0,59.0,87,30.12,10.0,North,3.5,-,N/A,,Overcast,10,2013-10-05 14:52:00
11:18 AM,62.6,57.2,82,30.11,10.0,Calm,Calm,-,N/A,,Overcast,0,2013-10-05 15:18:00
11:32 AM,64.4,57.2,77,30.11,10.0,Calm,Calm,-,N/A,,Overcast,0,2013-10-05 15:32:00
11:52 AM,64.9,57.9,78,30.10,10.0,Calm,Calm,-,N/A,,Overcast,0,2013-10-05 15:52:00
12:52 PM,68.0,59.0,73,30.09,10.0,Calm,Calm,-,N/A,,Scattered Clouds,0,2013-10-05 16:52:00
1:06 PM,69.8,60.8,73,30.09,10.0,Variable,4.6,-,N/A,,Mostly Cloudy,0,2013-10-05 17:06:00
1:30 PM,69.8,60.8,73,30.07,10.0,Calm,Calm,-,N/A,,Scattered Clouds,0,2013-10-05 17:30:00
1:52 PM,71.1,61.0,70,30.06,10.0,Calm,Calm,-,N/A,,Mostly Cloudy,0,2013-10-05 17:52:00
2:52 PM,72.0,61.0,68,30.06,10.0,NNE,8.1,-,N/A,,Mostly Cloudy,30,2013-10-05 18:52:00
3:52 PM,72.0,61.0,68,30.06,10.0,NNE,4.6,-,N/A,,Scattered Clouds,30,2013-10-05 19:52:00
4:52 PM,72.0,60.1,66,30.06,10.0,Calm,Calm,-,N/A,,Clear,0,2013-10-05 20:52:00
5:52 PM,71.1,61.0,70,30.07,10.0,Calm,Calm,-,N/A,,Partly Cloudy,0,2013-10-05 21:52:00
6:52 PM,66.0,63.0,90,30.07,10.0,Calm,Calm,-,N/A,,Clear,0,2013-10-05 22:52:00
7:52 PM,66.0,62.1,87,30.09,10.0,Calm,Calm,-,N/A,,Overcast,0,2013-10-05 23:52:00
8:19 PM,64.4,62.6,94,30.09,10.0,Calm,Calm,-,N/A,,Overcast,0,2013-10-06 00:19:00
8:52 PM,64.9,62.1,90,30.09,10.0,South,5.8,-,N/A,,Overcast,170,2013-10-06 00:52:00
9:37 PM,64.4,60.8,88,30.11,10.0,South,3.5,-,N/A,,Overcast,180,2013-10-06 01:37:00
9:52 PM,64.0,60.1,87,30.12,10.0,SSW,3.5,-,N/A,,Overcast,200,2013-10-06 01:52:00
10:32 PM,64.4,60.8,88,30.12,9.0,Calm,Calm,-,N/A,,Overcast,0,2013-10-06 02:32:00
10:52 PM,63.0,60.1,90,30.12,9.0,South,3.5,-,N/A,,Overcast,180,2013-10-06 02:52:00
11:52 PM,63.0,60.1,90,30.12,10.0,Calm,Calm,-,N/A,,Overcast,0,2013-10-06 03:52:00